Time,TemperatureF,DewpointF,PressureIn,WindDirection,WindDirectionDegrees,WindSpeedMPH,WindSpeedGustMPH,Humidity,HourlyPrecipIn,Conditions,Clouds,dailyrainin,SoftwareType,DateUTC
2013-04-27 00:00:00,51.7,40.7,30.23,South,178,0.0,2.0,66,0.00,,---,0.00,VWS V14.00,2013-04-27 04:00:00,
2013-04-27 00:01:00,51.8,40.4,30.23,South,169,0.0,2.0,65,0.00,,---,0.00,VWS V14.00,2013-04-27 04:01:00,
2013-04-27 00:02:00,51.8,40.4,30.23,South,169,0.0,2.0,65,0.00,,---,0.00,VWS V14.00,2013-04-27 04:02:00,
2013-04-27 00:03:00,51.8,40.8,30.23,South,171,0.0,2.0,66,0.00,,---,0.00,VWS V14.00,2013-04-27 04:03:00,
2013-04-27 00:04:00,51.8,40.8,30.23,South,178,0.0,2.0,66,0.00,,---,0.00,VWS V14.00,2013-04-27 04:04:00,
2013-04-27 00:09:00,51.7,40.7,30.23,South,178,0.0,0.0,66,0.00,,---,0.00,VWS V14.00,2013-04-27 04:09:00,
2013-04-27 00:14:00,51.7,40.7,30.23,South,178,0.0,0.0,66,0.00,,---,0.00,VWS V14.00,2013-04-27 04:14:00,
2013-04-27 00:19:00,51.7,40.7,30.23,South,178,0.0,0.0,66,0.00,,---,0.00,VWS V14.00,2013-04-27 04:19:00,
2013-04-27 00:25:00,51.6,41.0,30.22,South,178,0.0,0.0,67,0.00,,---,0.00,VWS V14.00,2013-04-27 04:25:00,
2013-04-27 00:30:00,51.4,41.2,30.22,South,178,0.0,0.0,68,0.00,,---,0.00,VWS V14.00,2013-04-27 04:30:00,
2013-04-27 00:35:00,51.1,41.3,30.22,South,178,0.0,0.0,69,0.00,,---,0.00,VWS V14.00,2013-04-27 04:35:00,
2013-04-27 00:40:00,50.9,41.1,30.22,South,178,0.0,0.0,69,0.00,,---,0.00,VWS V14.00,2013-04-27 04:40:00,
2013-04-27 00:45:00,50.7,41.3,30.22,South,178,0.0,0.0,70,0.00,,---,0.00,VWS V14.00,2013-04-27 04:45:00,
2013-04-27 00:50:00,50.6,41.6,30.22,South,178,0.0,0.0,71,0.00,,---,0.00,VWS V14.00,2013-04-27 04:50:00,
2013-04-27 00:55:00,50.4,41.4,30.22,South,178,0.0,0.0,71,0.00,,---,0.00,VWS V14.00,2013-04-27 04:55:00,
2013-04-27 01:00:00,50.3,41.6,30.22,South,178,0.0,1.0,72,0.00,,---,0.00,VWS V14.00,2013-04-27 05:00:00,
2013-04-27 01:05:00,50.1,41.4,30.22,South,178,2.0,2.0,72,0.00,,---,0.00,VWS V14.00,2013-04-27 05:05:00,
2013-04-27 01:10:00,49.9,41.6,30.21,South,178,0.0,2.0,73,0.00,,---,0.00,VWS V14.00,2013-04-27 05:10:00,
2013-04-27 01:15:00,49.8,41.9,30.21,South,178,0.0,2.0,74,0.00,,---,0.00,VWS V14.00,2013-04-27 05:15:00,
2013-04-27 01:20:00,49.7,42.1,30.21,South,178,1.0,2.0,75,0.00,,---,0.00,VWS V14.00,2013-04-27 05:20:00,
2013-04-27 01:25:00,49.7,42.1,30.21,South,178,0.0,2.0,75,0.00,,---,0.00,VWS V14.00,2013-04-27 05:25:00,
2013-04-27 01:30:00,49.6,42.0,30.21,South,178,0.0,2.0,75,0.00,,---,0.00,VWS V14.00,2013-04-27 05:30:00,
2013-04-27 01:35:00,49.4,42.2,30.21,South,178,0.0,2.0,76,0.00,,---,0.00,VWS V14.00,2013-04-27 05:35:00,
2013-04-27 01:40:00,49.2,42.0,30.21,South,178,0.0,2.0,76,0.00,,---,0.00,VWS V14.00,2013-04-27 05:40:00,
2013-04-27 01:45:00,49.3,42.1,30.21,South,178,0.0,2.0,76,0.00,,---,0.00,VWS V14.00,2013-04-27 05:45:00,
2013-04-27 01:50:00,49.4,42.2,30.21,South,178,1.0,2.0,76,0.00,,---,0.00,VWS V14.00,2013-04-27 05:50:00,
2013-04-27 01:56:00,49.4,42.2,30.21,South,178,1.0,2.0,76,0.00,,---,0.00,VWS V14.00,2013-04-27 05:56:00,
2013-04-27 02:00:00,49.2,42.3,30.21,South,178,0.0,2.0,77,0.00,,---,0.00,VWS V14.00,2013-04-27 06:00:00,
2013-04-27 02:01:00,49.3,42.1,30.21,South,178,0.0,2.0,76,0.00,,---,0.00,VWS V14.00,2013-04-27 06:01:00,
2013-04-27 02:06:00,49.2,42.0,30.21,South,178,0.0,2.0,76,0.00,,---,0.00,VWS V14.00,2013-04-27 06:06:00,
2013-04-27 02:11:00,49.0,42.1,30.21,South,178,0.0,2.0,77,0.00,,---,0.00,VWS V14.00,2013-04-27 06:11:00,
2013-04-27 02:16:00,48.8,41.9,30.21,South,178,0.0,2.0,77,0.00,,---,0.00,VWS V14.00,2013-04-27 06:16:00,
2013-04-27 02:21:00,48.7,41.8,30.21,South,178,0.0,2.0,77,0.00,,---,0.00,VWS V14.00,2013-04-27 06:21:00,
2013-04-27 02:26:00,48.4,41.9,30.21,South,178,0.0,2.0,78,0.00,,---,0.00,VWS V14.00,2013-04-27 06:26:00,
2013-04-27 02:30:00,48.1,41.6,30.21,South,178,0.0,2.0,78,0.00,,---,0.00,VWS V14.00,2013-04-27 06:30:00,
2013-04-27 02:31:00,48.2,41.7,30.21,South,178,0.0,2.0,78,0.00,,---,0.00,VWS V14.00,2013-04-27 06:31:00,
2013-04-27 02:36:00,48.1,41.6,30.21,South,178,0.0,2.0,78,0.00,,---,0.00,VWS V14.00,2013-04-27 06:36:00,
2013-04-27 02:41:00,48.2,41.7,30.20,South,178,0.0,0.0,78,0.00,,---,0.00,VWS V14.00,2013-04-27 06:41:00,
2013-04-27 02:46:00,48.1,41.9,30.20,South,178,0.0,0.0,79,0.00,,---,0.00,VWS V14.00,2013-04-27 06:46:00,
2013-04-27 02:51:00,47.9,41.7,30.20,South,178,0.0,0.0,79,0.00,,---,0.00,VWS V14.00,2013-04-27 06:51:00,
2013-04-27 02:56:00,47.8,41.6,30.20,South,178,0.0,0.0,79,0.00,,---,0.00,VWS V14.00,2013-04-27 06:56:00,
2013-04-27 03:00:00,47.5,41.3,30.20,South,178,0.0,0.0,79,0.00,,---,0.00,VWS V14.00,2013-04-27 07:00:00,
2013-04-27 03:01:00,47.6,41.4,30.20,South,178,0.0,0.0,79,0.00,,---,0.00,VWS V14.00,2013-04-27 07:01:00,
2013-04-27 03:06:00,47.5,41.3,30.20,South,178,0.0,0.0,79,0.00,,---,0.00,VWS V14.00,2013-04-27 07:06:00,
2013-04-27 03:11:00,47.4,41.2,30.20,South,178,0.0,0.0,79,0.00,,---,0.00,VWS V14.00,2013-04-27 07:11:00,
2013-04-27 03:16:00,47.3,41.5,30.20,South,178,0.0,0.0,80,0.00,,---,0.00,VWS V14.00,2013-04-27 07:16:00,
2013-04-27 03:21:00,47.3,41.5,30.20,South,178,0.0,0.0,80,0.00,,---,0.00,VWS V14.00,2013-04-27 07:21:00,
2013-04-27 03:27:00,47.3,41.5,30.20,South,178,0.0,0.0,80,0.00,,---,0.00,VWS V14.00,2013-04-27 07:27:00,
2013-04-27 03:30:00,47.6,41.7,30.19,South,178,0.0,0.0,80,0.00,,---,0.00,VWS V14.00,2013-04-27 07:30:00,
2013-04-27 03:32:00,47.5,41.7,30.19,South,178,0.0,0.0,80,0.00,,---,0.00,VWS V14.00,2013-04-27 07:32:00,
2013-04-27 03:37:00,47.6,41.8,30.19,South,178,0.0,0.0,80,0.00,,---,0.00,VWS V14.00,2013-04-27 07:37:00,
2013-04-27 03:42:00,47.7,41.8,30.19,South,178,0.0,0.0,80,0.00,,---,0.00,VWS V14.00,2013-04-27 07:42:00,
2013-04-27 03:47:00,47.8,41.9,30.18,South,178,0.0,0.0,80,0.00,,---,0.00,VWS V14.00,2013-04-27 07:47:00,
2013-04-27 03:52:00,47.8,41.9,30.19,South,178,0.0,0.0,80,0.00,,---,0.00,VWS V14.00,2013-04-27 07:52:00,
2013-04-27 03:57:00,47.9,42.0,30.18,South,178,0.0,0.0,80,0.00,,---,0.00,VWS V14.00,2013-04-27 07:57:00,
2013-04-27 04:00:00,47.9,42.0,30.19,South,178,0.0,0.0,80,0.00,,---,0.00,VWS V14.00,2013-04-27 08:00:00,
2013-04-27 04:02:00,47.9,42.0,30.19,South,178,0.0,0.0,80,0.00,,---,0.00,VWS V14.00,2013-04-27 08:02:00,
2013-04-27 04:07:00,48.0,42.1,30.19,South,178,0.0,0.0,80,0.00,,---,0.00,VWS V14.00,2013-04-27 08:07:00,
2013-04-27 04:12:00,47.9,42.0,30.19,South,178,0.0,0.0,80,0.00,,---,0.00,VWS V14.00,2013-04-27 08:12:00,
2013-04-27 04:17:00,47.9,42.0,30.19,South,178,0.0,0.0,80,0.00,,---,0.00,VWS V14.00,2013-04-27 08:17:00,
2013-04-27 04:22:00,47.8,41.9,30.19,South,178,0.0,0.0,80,0.00,,---,0.00,VWS V14.00,2013-04-27 08:22:00,
2013-04-27 04:27:00,47.7,41.8,30.19,South,178,0.0,0.0,80,0.00,,---,0.00,VWS V14.00,2013-04-27 08:27:00,
2013-04-27 04:30:00,47.7,41.8,30.18,South,179,3.0,3.0,80,0.00,,---,0.00,VWS V14.00,2013-04-27 08:30:00,
2013-04-27 04:32:00,47.7,41.8,30.19,South,178,0.0,0.0,80,0.00,,---,0.00,VWS V14.00,2013-04-27 08:32:00,
2013-04-27 04:37:00,47.7,41.8,30.18,South,180,3.0,3.0,80,0.00,,---,0.00,VWS V14.00,2013-04-27 08:37:00,
2013-04-27 04:42:00,47.6,41.4,30.18,NNW,333,3.0,4.0,79,0.00,,---,0.00,VWS V14.00,2013-04-27 08:42:00,
2013-04-27 04:47:00,47.6,41.4,30.18,NNW,333,0.0,4.0,79,0.00,,---,0.00,VWS V14.00,2013-04-27 08:47:00,
2013-04-27 04:52:00,47.6,41.4,30.18,NNW,333,1.0,4.0,79,0.00,,---,0.00,VWS V14.00,2013-04-27 08:52:00,
2013-04-27 04:57:00,47.6,41.4,30.18,NNW,333,0.0,4.0,79,0.00,,---,0.00,VWS V14.00,2013-04-27 08:57:00,
2013-04-27 05:00:00,47.6,41.1,30.18,NNW,333,0.0,4.0,78,0.00,,---,0.00,VWS V14.00,2013-04-27 09:00:00,
2013-04-27 05:02:00,47.6,41.1,30.18,NNW,333,0.0,4.0,78,0.00,,---,0.00,VWS V14.00,2013-04-27 09:02:00,
2013-04-27 05:08:00,47.5,41.0,30.18,NNW,333,0.0,0.0,78,0.00,,---,0.00,VWS V14.00,2013-04-27 09:08:00,
2013-04-27 05:13:00,47.5,41.0,30.18,NNW,333,0.0,2.0,78,0.00,,---,0.00,VWS V14.00,2013-04-27 09:13:00,
2013-04-27 05:18:00,47.4,41.2,30.18,NNW,333,0.0,2.0,79,0.00,,---,0.00,VWS V14.00,2013-04-27 09:18:00,
2013-04-27 05:23:00,47.4,41.2,30.18,NNW,333,0.0,2.0,79,0.00,,---,0.00,VWS V14.00,2013-04-27 09:23:00,
2013-04-27 05:28:00,47.3,41.1,30.18,NNW,333,0.0,2.0,79,0.00,,---,0.00,VWS V14.00,2013-04-27 09:28:00,
2013-04-27 05:30:00,47.2,40.7,30.18,NNW,333,0.0,2.0,78,0.00,,---,0.00,VWS V14.00,2013-04-27 09:30:00,
2013-04-27 05:33:00,47.3,40.8,30.18,NNW,333,0.0,2.0,78,0.00,,---,0.00,VWS V14.00,2013-04-27 09:33:00,
2013-04-27 05:38:00,47.2,40.7,30.17,NNW,333,0.0,0.0,78,0.00,,---,0.00,VWS V14.00,2013-04-27 09:38:00,
2013-04-27 05:43:00,47.1,40.6,30.17,NNW,333,0.0,0.0,78,0.00,,---,0.00,VWS V14.00,2013-04-27 09:43:00,
2013-04-27 05:48:00,47.0,40.5,30.17,NNW,333,0.0,1.0,78,0.00,,---,0.00,VWS V14.00,2013-04-27 09:48:00,
2013-04-27 05:53:00,46.9,40.7,30.17,NNW,333,0.0,1.0,79,0.00,,---,0.00,VWS V14.00,2013-04-27 09:53:00,
2013-04-27 05:58:00,46.8,40.6,30.17,NNW,333,0.0,1.0,79,0.00,,---,0.00,VWS V14.00,2013-04-27 09:58:00,
2013-04-27 06:00:00,46.8,40.6,30.17,NNW,333,0.0,1.0,79,0.00,,---,0.00,VWS V14.00,2013-04-27 10:00:00,
2013-04-27 06:03:00,46.8,40.6,30.17,NNW,333,0.0,1.0,79,0.00,,---,0.00,VWS V14.00,2013-04-27 10:03:00,
2013-04-27 06:08:00,46.8,40.3,30.17,NNW,333,0.0,1.0,78,0.00,,---,0.00,VWS V14.00,2013-04-27 10:08:00,
2013-04-27 06:13:00,46.8,40.3,30.17,NNW,333,2.0,3.0,78,0.00,,---,0.00,VWS V14.00,2013-04-27 10:13:00,
2013-04-27 06:18:00,46.9,40.4,30.17,NNW,333,1.0,3.0,78,0.00,,---,0.00,VWS V14.00,2013-04-27 10:18:00,
2013-04-27 06:23:00,47.0,40.2,30.17,NNW,333,0.0,3.0,77,0.00,,---,0.00,VWS V14.00,2013-04-27 10:23:00,
2013-04-27 06:28:00,47.1,40.3,30.17,NNW,333,0.0,3.0,77,0.00,,---,0.00,VWS V14.00,2013-04-27 10:28:00,
2013-04-27 06:30:00,47.2,40.0,30.17,NNW,333,0.0,3.0,76,0.00,,---,0.00,VWS V14.00,2013-04-27 10:30:00,
2013-04-27 06:33:00,47.2,40.4,30.17,NNW,333,0.0,3.0,77,0.00,,---,0.00,VWS V14.00,2013-04-27 10:33:00,
2013-04-27 06:38:00,47.2,40.0,30.17,NNW,333,0.0,1.0,76,0.00,,---,0.00,VWS V14.00,2013-04-27 10:38:00,
2013-04-27 06:43:00,47.3,40.1,30.17,NNW,333,0.0,1.0,76,0.00,,---,0.00,VWS V14.00,2013-04-27 10:43:00,
2013-04-27 06:49:00,47.4,40.2,30.16,NNW,333,0.0,1.0,76,0.00,,---,0.00,VWS V14.00,2013-04-27 10:49:00,
2013-04-27 06:54:00,47.6,40.8,30.16,NNW,333,4.0,4.0,77,0.00,,---,0.00,VWS V14.00,2013-04-27 10:54:00,
2013-04-27 06:59:00,47.7,40.8,30.15,NNW,339,2.0,5.0,77,0.00,,---,0.00,VWS V14.00,2013-04-27 10:59:00,
2013-04-27 07:00:00,47.8,41.0,30.15,NNW,340,3.0,5.0,77,0.00,,---,0.00,VWS V14.00,2013-04-27 11:00:00,
2013-04-27 07:04:00,47.8,41.0,30.15,NNW,338,2.0,5.0,77,0.00,,---,0.00,VWS V14.00,2013-04-27 11:04:00,
2013-04-27 07:09:00,47.8,40.6,30.15,NNW,340,2.0,4.0,76,0.00,,---,0.00,VWS V14.00,2013-04-27 11:09:00,
2013-04-27 07:14:00,47.8,40.3,30.15,NNW,340,2.0,4.0,75,0.00,,---,0.00,VWS V14.00,2013-04-27 11:14:00,
2013-04-27 07:19:00,48.0,40.5,30.15,NNW,340,0.0,4.0,75,0.00,,---,0.00,VWS V14.00,2013-04-27 11:19:00,
2013-04-27 07:24:00,48.1,40.6,30.16,NNW,340,0.0,4.0,75,0.00,,---,0.00,VWS V14.00,2013-04-27 11:24:00,
2013-04-27 07:29:00,48.3,40.8,30.15,NNW,340,1.0,4.0,75,0.00,,---,0.00,VWS V14.00,2013-04-27 11:29:00,
2013-04-27 07:30:00,48.5,41.0,30.15,NNW,340,0.0,4.0,75,0.00,,---,0.00,VWS V14.00,2013-04-27 11:30:00,
2013-04-27 07:34:00,48.4,40.8,30.15,NNW,340,0.0,4.0,75,0.00,,---,0.00,VWS V14.00,2013-04-27 11:34:00,
2013-04-27 07:39:00,48.5,41.0,30.14,NNW,340,0.0,0.0,75,0.00,,---,0.00,VWS V14.00,2013-04-27 11:39:00,
2013-04-27 07:44:00,48.6,41.0,30.14,NNW,340,0.0,0.0,75,0.00,,---,0.00,VWS V14.00,2013-04-27 11:44:00,
2013-04-27 07:49:00,48.6,41.4,30.14,NNW,340,1.0,1.0,76,0.00,,---,0.00,VWS V14.00,2013-04-27 11:49:00,
2013-04-27 07:54:00,49.0,42.1,30.14,NNE,19,5.0,6.0,77,0.00,,---,0.00,VWS V14.00,2013-04-27 11:54:00,
2013-04-27 07:59:00,49.4,42.5,30.14,North,9,3.0,6.0,77,0.00,,---,0.00,VWS V14.00,2013-04-27 11:59:00,
2013-04-27 08:00:00,49.5,42.3,30.14,North,355,2.0,6.0,76,0.00,,---,0.00,VWS V14.00,2013-04-27 12:00:00,
2013-04-27 08:04:00,49.5,42.3,30.14,North,350,3.0,6.0,76,0.00,,---,0.00,VWS V14.00,2013-04-27 12:04:00,
2013-04-27 08:10:00,49.5,42.3,30.14,North,355,3.0,5.0,76,0.00,,---,0.00,VWS V14.00,2013-04-27 12:10:00,
2013-04-27 08:15:00,49.4,41.5,30.14,NNE,22,3.0,5.0,74,0.00,,---,0.00,VWS V14.00,2013-04-27 12:15:00,
2013-04-27 08:20:00,49.5,41.2,30.14,NNW,348,5.0,5.0,73,0.00,,---,0.00,VWS V14.00,2013-04-27 12:20:00,
2013-04-27 08:25:00,49.7,41.4,30.14,NNE,28,6.0,7.0,73,0.00,,---,0.00,VWS V14.00,2013-04-27 12:25:00,
2013-04-27 08:30:00,50.0,41.3,30.13,NE,39,7.0,9.0,72,0.00,,---,0.00,VWS V14.00,2013-04-27 12:30:00,
2013-04-27 08:35:00,50.3,41.3,30.13,NNE,22,6.0,9.0,71,0.00,,---,0.00,VWS V14.00,2013-04-27 12:35:00,
2013-04-27 08:40:00,50.5,41.5,30.13,NE,42,4.0,8.0,71,0.00,,---,0.00,VWS V14.00,2013-04-27 12:40:00,
2013-04-27 08:45:00,50.6,41.2,30.13,ENE,57,6.0,8.0,70,0.00,,---,0.00,VWS V14.00,2013-04-27 12:45:00,
2013-04-27 08:50:00,50.8,40.6,30.14,NE,49,8.0,11.0,68,0.00,,---,0.00,VWS V14.00,2013-04-27 12:50:00,
2013-04-27 08:55:00,51.0,39.7,30.14,NE,38,11.0,12.0,65,0.00,,---,0.00,VWS V14.00,2013-04-27 12:55:00,
2013-04-27 09:00:00,51.1,40.2,30.14,NNE,30,10.0,12.0,66,0.00,,---,0.00,VWS V14.00,2013-04-27 13:00:00,
2013-04-27 09:05:00,51.3,40.3,30.14,NE,36,7.0,12.0,66,0.00,,---,0.00,VWS V14.00,2013-04-27 13:05:00,
2013-04-27 09:10:00,51.4,40.0,30.14,NNE,26,9.0,11.0,65,0.00,,---,0.00,VWS V14.00,2013-04-27 13:10:00,
2013-04-27 09:15:00,51.6,40.6,30.14,NNE,23,7.0,11.0,66,0.00,,---,0.00,VWS V14.00,2013-04-27 13:15:00,
2013-04-27 09:20:00,51.6,40.2,30.06,NNE,33,5.0,11.0,65,0.00,,---,0.00,VWS V14.00,2013-04-27 13:20:00,
2013-04-27 09:25:00,51.8,40.0,30.06,NE,44,4.0,11.0,64,0.00,,---,0.00,VWS V14.00,2013-04-27 13:25:00,
2013-04-27 09:30:00,51.9,40.5,30.15,NE,55,3.0,11.0,65,0.00,,---,0.00,VWS V14.00,2013-04-27 13:30:00,
2013-04-27 09:35:00,52.0,40.6,30.15,NE,40,5.0,11.0,65,0.00,,---,0.00,VWS V14.00,2013-04-27 13:35:00,
2013-04-27 09:40:00,52.1,40.7,30.15,NE,40,0.0,5.0,65,0.00,,---,0.00,VWS V14.00,2013-04-27 13:40:00,
2013-04-27 09:48:00,52.3,40.9,30.15,NE,40,4.0,5.0,65,0.00,,---,0.00,VWS V14.00,2013-04-27 13:48:00,
2013-04-27 09:53:00,52.4,41.0,30.17,NNE,20,5.0,5.0,65,0.00,,---,0.00,VWS V14.00,2013-04-27 13:53:00,
2013-04-27 09:58:00,52.4,41.4,30.17,NNE,20,3.0,6.0,66,0.00,,---,0.00,VWS V14.00,2013-04-27 13:58:00,
2013-04-27 10:00:00,52.7,40.9,30.17,NNE,19,2.0,6.0,64,0.00,,---,0.00,VWS V14.00,2013-04-27 14:00:00,
2013-04-27 10:03:00,52.6,41.2,30.17,NNE,20,2.0,6.0,65,0.00,,---,0.00,VWS V14.00,2013-04-27 14:03:00,
2013-04-27 10:08:00,52.8,41.4,30.17,NNE,20,2.0,3.0,65,0.00,,---,0.00,VWS V14.00,2013-04-27 14:08:00,
2013-04-27 10:13:00,53.0,41.6,30.17,NNE,20,4.0,4.0,65,0.00,,---,0.00,VWS V14.00,2013-04-27 14:13:00,
2013-04-27 10:18:00,53.2,41.8,30.17,NNE,19,3.0,4.0,65,0.00,,---,0.00,VWS V14.00,2013-04-27 14:18:00,
2013-04-27 10:23:00,53.3,41.8,29.07,NNE,20,3.0,5.0,65,0.00,,---,0.00,VWS V14.00,2013-04-27 14:23:00,
2013-04-27 10:28:00,53.6,41.7,29.07,NNE,19,0.0,5.0,64,0.00,,---,0.00,VWS V14.00,2013-04-27 14:28:00,
2013-04-27 10:30:00,54.0,41.7,29.07,NE,38,4.0,5.0,63,0.00,,---,0.00,VWS V14.00,2013-04-27 14:30:00,
2013-04-27 10:34:00,53.9,42.0,29.07,NNE,19,2.0,5.0,64,0.00,,---,0.00,VWS V14.00,2013-04-27 14:34:00,
2013-04-27 10:39:00,54.1,41.8,29.07,NNE,30,4.0,5.0,63,0.00,,---,0.00,VWS V14.00,2013-04-27 14:39:00,
2013-04-27 10:44:00,54.2,41.5,28.97,NE,36,3.0,5.0,62,0.00,,---,0.00,VWS V14.00,2013-04-27 14:44:00,
2013-04-27 10:49:00,54.3,41.6,28.97,NE,42,6.0,6.0,62,0.00,,---,0.00,VWS V14.00,2013-04-27 14:49:00,
2013-04-27 10:54:00,54.4,41.7,28.97,NE,48,4.0,6.0,62,0.00,,---,0.00,VWS V14.00,2013-04-27 14:54:00,
2013-04-27 10:59:00,54.6,42.7,27.36,NE,38,5.0,6.0,64,0.00,,---,0.00,VWS V14.00,2013-04-27 14:59:00,
2013-04-27 11:00:00,55.1,43.6,27.36,NE,36,5.0,8.0,65,0.00,,---,0.00,VWS V14.00,2013-04-27 15:00:00,
2013-04-27 11:04:00,54.9,42.1,27.36,NE,36,5.0,8.0,62,0.00,,---,0.00,VWS V14.00,2013-04-27 15:04:00,
2013-04-27 11:09:00,55.2,42.4,27.36,NE,42,4.0,6.0,62,0.00,,---,0.00,VWS V14.00,2013-04-27 15:09:00,
2013-04-27 11:14:00,55.5,43.1,27.36,NE,51,4.0,6.0,63,0.00,,---,0.00,VWS V14.00,2013-04-27 15:14:00,
2013-04-27 11:19:00,55.8,43.4,28.38,NE,51,2.0,6.0,63,0.00,,---,0.00,VWS V14.00,2013-04-27 15:19:00,
2013-04-27 11:24:00,56.0,43.6,28.38,ENE,65,3.0,6.0,63,0.00,,---,0.00,VWS V14.00,2013-04-27 15:24:00,
2013-04-27 11:29:00,56.3,43.0,28.38,ENE,75,0.0,6.0,61,0.00,,---,0.00,VWS V14.00,2013-04-27 15:29:00,
2013-04-27 11:30:00,56.6,43.3,28.38,SSE,149,4.0,6.0,61,0.00,,---,0.00,VWS V14.00,2013-04-27 15:30:00,
2013-04-27 11:34:00,56.5,43.2,28.38,ENE,75,1.0,6.0,61,0.00,,---,0.00,VWS V14.00,2013-04-27 15:34:00,
2013-04-27 11:39:00,57.2,44.7,28.38,SE,131,12.0,14.0,63,0.00,,---,0.00,VWS V14.00,2013-04-27 15:39:00,
2013-04-27 11:44:00,57.6,44.7,28.38,SE,130,13.0,14.0,62,0.00,,---,0.00,VWS V14.00,2013-04-27 15:44:00,
2013-04-27 11:49:00,57.3,45.2,28.38,ESE,117,12.0,17.0,64,0.00,,---,0.00,VWS V14.00,2013-04-27 15:49:00,
2013-04-27 11:54:00,57.0,46.2,28.38,ESE,123,13.0,17.0,67,0.00,,---,0.00,VWS V14.00,2013-04-27 15:54:00,
2013-04-27 11:59:00,56.7,46.3,28.38,ESE,119,12.0,17.0,68,0.00,,---,0.00,VWS V14.00,2013-04-27 15:59:00,
2013-04-27 12:00:00,56.6,45.8,28.88,SE,128,13.0,17.0,67,0.00,,---,0.00,VWS V14.00,2013-04-27 16:00:00,
2013-04-27 12:04:00,56.6,46.2,28.88,SE,130,13.0,17.0,68,0.00,,---,0.00,VWS V14.00,2013-04-27 16:04:00,
2013-04-27 12:10:00,56.7,45.5,28.88,ESE,118,12.0,13.0,66,0.00,,---,0.00,VWS V14.00,2013-04-27 16:10:00,
2013-04-27 12:15:00,56.9,45.7,28.88,ESE,115,6.0,13.0,66,0.00,,---,0.00,VWS V14.00,2013-04-27 16:15:00,
2013-04-27 12:20:00,57.2,45.6,28.88,ESE,110,6.0,13.0,65,0.00,,---,0.00,VWS V14.00,2013-04-27 16:20:00,
2013-04-27 12:25:00,57.5,47.0,28.35,ESE,121,9.0,13.0,68,0.00,,---,0.00,VWS V14.00,2013-04-27 16:25:00,
2013-04-27 12:30:00,57.7,47.6,28.35,SE,144,11.0,13.0,69,0.00,,---,0.00,VWS V14.00,2013-04-27 16:30:00,
2013-04-27 12:35:00,57.7,46.8,28.35,SE,142,12.0,16.0,67,0.00,,---,0.00,VWS V14.00,2013-04-27 16:35:00,
2013-04-27 12:40:00,57.6,47.5,28.83,SSE,159,14.0,18.0,69,0.00,,---,0.00,VWS V14.00,2013-04-27 16:40:00,
2013-04-27 12:45:00,57.6,47.9,28.83,SSE,159,14.0,18.0,70,0.00,,---,0.00,VWS V14.00,2013-04-27 16:45:00,
2013-04-27 12:50:00,57.6,47.9,28.83,SSE,156,13.0,18.0,70,0.00,,---,0.00,VWS V14.00,2013-04-27 16:50:00,
2013-04-27 12:55:00,57.7,47.6,28.83,SSE,149,15.0,18.0,69,0.00,,---,0.00,VWS V14.00,2013-04-27 16:55:00,
2013-04-27 13:00:00,57.6,47.5,28.83,SE,130,13.0,18.0,69,0.00,,---,0.00,VWS V14.00,2013-04-27 17:00:00,
2013-04-27 13:05:00,57.6,47.5,28.83,SE,132,9.0,18.0,69,0.00,,---,0.00,VWS V14.00,2013-04-27 17:05:00,
2013-04-27 13:10:00,57.7,48.0,28.83,SE,134,12.0,13.0,70,0.00,,---,0.00,VWS V14.00,2013-04-27 17:10:00,
2013-04-27 13:15:00,57.8,48.1,28.83,ESE,114,10.0,14.0,70,0.00,,---,0.00,VWS V14.00,2013-04-27 17:15:00,
2013-04-27 13:20:00,57.8,48.1,28.83,SE,128,13.0,14.0,70,0.00,,---,0.00,VWS V14.00,2013-04-27 17:20:00,
2013-04-27 13:25:00,57.8,48.8,28.83,SE,144,13.0,14.0,72,0.00,,---,0.00,VWS V14.00,2013-04-27 17:25:00,
2013-04-27 13:30:00,57.7,48.4,28.83,SE,136,9.0,14.0,71,0.00,,---,0.00,VWS V14.00,2013-04-27 17:30:00,
2013-04-27 13:31:00,57.8,48.5,28.83,ESE,123,12.0,14.0,71,0.00,,---,0.00,VWS V14.00,2013-04-27 17:31:00,
2013-04-27 13:36:00,57.8,48.5,28.83,ESE,121,10.0,14.0,71,0.00,,---,0.00,VWS V14.00,2013-04-27 17:36:00,
2013-04-27 13:41:00,57.7,48.4,28.83,SE,139,10.0,14.0,71,0.00,,---,0.00,VWS V14.00,2013-04-27 17:41:00,
2013-04-27 13:46:00,57.8,48.8,28.83,ESE,115,6.0,14.0,72,0.00,,---,0.00,VWS V14.00,2013-04-27 17:46:00,
2013-04-27 13:51:00,57.9,48.6,28.83,SE,129,7.0,14.0,71,0.00,,---,0.00,VWS V14.00,2013-04-27 17:51:00,
2013-04-27 13:56:00,58.0,48.3,28.83,ESE,121,6.0,14.0,70,0.00,,---,0.00,VWS V14.00,2013-04-27 17:56:00,
2013-04-27 14:00:00,58.2,48.5,28.83,SSE,155,6.0,14.0,70,0.00,,---,0.00,VWS V14.00,2013-04-27 18:00:00,
2013-04-27 14:01:00,58.1,48.8,28.83,ESE,121,4.0,14.0,71,0.00,,---,0.00,VWS V14.00,2013-04-27 18:01:00,
2013-04-27 14:06:00,58.2,48.5,28.83,SSE,155,6.0,14.0,70,0.00,,---,0.00,VWS V14.00,2013-04-27 18:06:00,
2013-04-27 14:11:00,58.5,48.8,28.83,SSE,155,14.0,14.0,70,0.00,,---,0.00,VWS V14.00,2013-04-27 18:11:00,
2013-04-27 14:16:00,58.7,48.6,28.83,SE,146,6.0,17.0,69,0.00,,---,0.00,VWS V14.00,2013-04-27 18:16:00,
2013-04-27 14:21:00,58.7,49.0,28.83,SE,136,8.0,17.0,70,0.00,,---,0.00,VWS V14.00,2013-04-27 18:21:00,
2013-04-27 14:26:00,58.9,49.5,28.83,ESE,113,7.0,17.0,71,0.00,,---,0.00,VWS V14.00,2013-04-27 18:26:00,
2013-04-27 14:30:00,59.0,49.6,26.75,ESE,111,11.0,17.0,71,0.00,,---,0.00,VWS V14.00,2013-04-27 18:30:00,
2013-04-27 14:31:00,59.0,49.2,28.83,ESE,114,11.0,17.0,70,0.00,,---,0.00,VWS V14.00,2013-04-27 18:31:00,
2013-04-27 14:36:00,59.0,49.6,26.75,ESE,115,11.0,11.0,71,0.00,,---,0.00,VWS V14.00,2013-04-27 18:36:00,
2013-04-27 14:41:00,59.0,49.2,26.75,ESE,109,9.0,12.0,70,0.00,,---,0.00,VWS V14.00,2013-04-27 18:41:00,
2013-04-27 14:46:00,59.0,49.6,26.75,SE,136,11.0,14.0,71,0.00,,---,0.00,VWS V14.00,2013-04-27 18:46:00,
2013-04-27 14:52:00,59.0,48.9,26.75,SE,128,12.0,16.0,69,0.00,,---,0.00,VWS V14.00,2013-04-27 18:52:00,
2013-04-27 14:57:00,59.3,49.1,26.75,SE,135,12.0,21.0,69,0.00,,---,0.00,VWS V14.00,2013-04-27 18:57:00,
2013-04-27 15:00:00,59.3,49.5,26.75,ESE,106,12.0,21.0,70,0.00,,---,0.00,VWS V14.00,2013-04-27 19:00:00,
2013-04-27 15:02:00,59.3,49.1,26.75,SSE,150,12.0,21.0,69,0.00,,---,0.00,VWS V14.00,2013-04-27 19:02:00,
2013-04-27 15:07:00,59.3,49.1,26.75,ESE,110,8.0,13.0,69,0.00,,---,0.00,VWS V14.00,2013-04-27 19:07:00,
2013-04-27 15:12:00,59.2,49.4,26.75,ESE,123,10.0,13.0,70,0.00,,---,0.00,VWS V14.00,2013-04-27 19:12:00,
2013-04-27 15:17:00,59.3,49.5,26.75,East,98,4.0,13.0,70,0.00,,---,0.00,VWS V14.00,2013-04-27 19:17:00,
2013-04-27 15:22:00,59.1,49.7,26.75,East,101,6.0,13.0,71,0.00,,---,0.00,VWS V14.00,2013-04-27 19:22:00,
2013-04-27 15:27:00,59.2,49.4,26.75,ESE,103,7.0,13.0,70,0.00,,---,0.00,VWS V14.00,2013-04-27 19:27:00,
2013-04-27 15:30:00,59.3,49.5,26.75,ESE,105,7.0,13.0,70,0.00,,---,0.00,VWS V14.00,2013-04-27 19:30:00,
2013-04-27 15:32:00,59.2,49.0,26.75,ESE,111,6.0,13.0,69,0.00,,---,0.00,VWS V14.00,2013-04-27 19:32:00,
2013-04-27 15:37:00,59.3,49.1,26.75,East,98,5.0,8.0,69,0.00,,---,0.00,VWS V14.00,2013-04-27 19:37:00,
2013-04-27 15:42:00,59.3,49.5,26.75,East,79,11.0,11.0,70,0.00,,---,0.00,VWS V14.00,2013-04-27 19:42:00,
2013-04-27 15:47:00,59.5,49.3,26.75,East,84,7.0,13.0,69,0.00,,---,0.00,VWS V14.00,2013-04-27 19:47:00,
2013-04-27 15:52:00,59.6,49.4,26.75,SE,124,10.0,13.0,69,0.00,,---,0.00,VWS V14.00,2013-04-27 19:52:00,
2013-04-27 15:57:00,59.6,49.4,26.75,ESE,113,8.0,13.0,69,0.00,,---,0.00,VWS V14.00,2013-04-27 19:57:00,
2013-04-27 16:00:00,59.6,49.4,26.75,ESE,103,7.0,13.0,69,0.00,,---,0.00,VWS V14.00,2013-04-27 20:00:00,
2013-04-27 16:02:00,59.6,49.8,26.75,East,96,7.0,13.0,70,0.00,,---,0.00,VWS V14.00,2013-04-27 20:02:00,
2013-04-27 16:07:00,59.6,49.8,26.75,ESE,103,6.0,8.0,70,0.00,,---,0.00,VWS V14.00,2013-04-27 20:07:00,
2013-04-27 16:12:00,59.6,49.4,26.75,East,94,9.0,11.0,69,0.00,,---,0.00,VWS V14.00,2013-04-27 20:12:00,
2013-04-27 16:17:00,59.6,49.8,26.75,ESE,118,9.0,13.0,70,0.00,,---,0.00,VWS V14.00,2013-04-27 20:17:00,
2013-04-27 16:22:00,59.6,49.8,26.75,ESE,109,11.0,13.0,70,0.00,,---,0.00,VWS V14.00,2013-04-27 20:22:00,
2013-04-27 16:27:00,59.7,49.5,26.75,East,99,10.0,13.0,69,0.00,,---,0.00,VWS V14.00,2013-04-27 20:27:00,
2013-04-27 16:30:00,59.8,49.6,26.75,SE,130,9.0,17.0,69,0.00,,---,0.00,VWS V14.00,2013-04-27 20:30:00,
2013-04-27 16:33:00,59.8,50.0,26.75,SE,141,12.0,15.0,70,0.00,,---,0.00,VWS V14.00,2013-04-27 20:33:00,
2013-04-27 16:38:00,59.8,50.0,26.75,SE,125,6.0,11.0,70,0.00,,---,0.00,VWS V14.00,2013-04-27 20:38:00,
2013-04-27 16:43:00,59.8,50.0,26.75,SE,124,10.0,12.0,70,0.00,,---,0.00,VWS V14.00,2013-04-27 20:43:00,
2013-04-27 16:48:00,59.7,49.9,26.75,SE,129,11.0,16.0,70,0.00,,---,0.00,VWS V14.00,2013-04-27 20:48:00,
2013-04-27 16:53:00,59.6,49.8,26.75,SE,135,13.0,16.0,70,0.00,,---,0.00,VWS V14.00,2013-04-27 20:53:00,
2013-04-27 16:58:00,59.7,50.3,26.75,ESE,122,7.0,16.0,71,0.00,,---,0.00,VWS V14.00,2013-04-27 20:58:00,
2013-04-27 17:00:00,59.7,49.9,26.75,ESE,105,8.0,16.0,70,0.00,,---,0.00,VWS V14.00,2013-04-27 21:00:00,
2013-04-27 17:03:00,59.7,49.9,26.75,ESE,109,11.0,16.0,70,0.00,,---,0.00,VWS V14.00,2013-04-27 21:03:00,
2013-04-27 17:08:00,59.8,50.0,26.75,ESE,123,11.0,13.0,70,0.00,,---,0.00,VWS V14.00,2013-04-27 21:08:00,
2013-04-27 17:13:00,59.8,50.0,28.11,East,90,7.0,13.0,70,0.00,,---,0.00,VWS V14.00,2013-04-27 21:13:00,
2013-04-27 17:18:00,59.8,50.4,28.11,SE,131,7.0,13.0,71,0.00,,---,0.00,VWS V14.00,2013-04-27 21:18:00,
2013-04-27 17:23:00,59.8,50.0,28.11,ESE,114,9.0,13.0,70,0.00,,---,0.00,VWS V14.00,2013-04-27 21:23:00,
2013-04-27 17:28:00,59.8,50.4,28.11,East,91,9.0,13.0,71,0.00,,---,0.00,VWS V14.00,2013-04-27 21:28:00,
2013-04-27 17:30:00,59.7,50.3,27.88,ESE,117,9.0,13.0,71,0.00,,---,0.00,VWS V14.00,2013-04-27 21:30:00,
2013-04-27 17:33:00,59.8,50.4,27.88,ESE,103,6.0,13.0,71,0.00,,---,0.00,VWS V14.00,2013-04-27 21:33:00,
2013-04-27 17:38:00,59.7,50.3,27.88,ESE,102,8.0,10.0,71,0.00,,---,0.00,VWS V14.00,2013-04-27 21:38:00,
2013-04-27 17:43:00,59.6,51.0,27.88,SE,130,16.0,17.0,73,0.00,,---,0.00,VWS V14.00,2013-04-27 21:43:00,
2013-04-27 17:48:00,59.4,50.8,27.88,ESE,121,10.0,17.0,73,0.00,,---,0.00,VWS V14.00,2013-04-27 21:48:00,
2013-04-27 17:54:00,59.3,51.0,27.88,SE,136,9.0,17.0,74,0.00,,---,0.00,VWS V14.00,2013-04-27 21:54:00,
2013-04-27 17:59:00,59.1,51.2,27.88,SE,124,13.0,17.0,75,0.00,,---,0.00,VWS V14.00,2013-04-27 21:59:00,
2013-04-27 18:00:00,59.1,50.8,27.88,SE,125,11.0,17.0,74,0.00,,---,0.00,VWS V14.00,2013-04-27 22:00:00,
2013-04-27 18:04:00,59.1,51.2,27.88,SE,130,15.0,17.0,75,0.00,,---,0.00,VWS V14.00,2013-04-27 22:04:00,
2013-04-27 18:09:00,59.1,50.8,28.16,SE,132,10.0,13.0,74,0.00,,---,0.00,VWS V14.00,2013-04-27 22:09:00,
2013-04-27 18:14:00,59.1,50.8,28.16,SE,133,10.0,15.0,74,0.00,,---,0.00,VWS V14.00,2013-04-27 22:14:00,
2013-04-27 18:19:00,59.0,51.1,28.16,SE,125,11.0,15.0,75,0.00,,---,0.00,VWS V14.00,2013-04-27 22:19:00,
2013-04-27 18:24:00,59.0,51.5,28.16,ESE,113,8.0,15.0,76,0.00,,---,0.00,VWS V14.00,2013-04-27 22:24:00,
2013-04-27 18:29:00,58.7,51.5,28.16,ESE,102,10.0,15.0,77,0.00,,---,0.00,VWS V14.00,2013-04-27 22:29:00,
2013-04-27 18:30:00,58.3,51.5,28.16,ESE,103,11.0,15.0,78,0.00,,---,0.00,VWS V14.00,2013-04-27 22:30:00,
2013-04-27 18:34:00,58.4,51.6,28.16,East,101,7.0,15.0,78,0.00,,---,0.00,VWS V14.00,2013-04-27 22:34:00,
2013-04-27 18:39:00,58.3,51.5,28.16,East,96,9.0,12.0,78,0.00,,---,0.00,VWS V14.00,2013-04-27 22:39:00,
2013-04-27 18:44:00,58.4,51.6,28.16,ESE,111,9.0,12.0,78,0.00,,---,0.00,VWS V14.00,2013-04-27 22:44:00,
2013-04-27 18:49:00,58.4,51.9,28.54,ESE,121,6.0,12.0,79,0.00,,---,0.00,VWS V14.00,2013-04-27 22:49:00,
2013-04-27 18:54:00,58.3,51.5,28.54,SE,129,6.0,12.0,78,0.00,,---,0.00,VWS V14.00,2013-04-27 22:54:00,
2013-04-27 18:59:00,58.3,51.5,28.54,SE,126,10.0,12.0,78,0.00,,---,0.00,VWS V14.00,2013-04-27 22:59:00,
2013-04-27 19:00:00,58.3,51.8,28.54,East,92,7.0,13.0,79,0.00,,---,0.00,VWS V14.00,2013-04-27 23:00:00,
2013-04-27 19:05:00,58.3,51.5,28.54,ESE,103,12.0,13.0,78,0.00,,---,0.00,VWS V14.00,2013-04-27 23:05:00,
2013-04-27 19:10:00,58.2,51.4,28.54,East,88,8.0,13.0,78,0.00,,---,0.00,VWS V14.00,2013-04-27 23:10:00,
2013-04-27 19:15:00,58.2,51.7,28.54,ESE,111,7.0,13.0,79,0.00,,---,0.00,VWS V14.00,2013-04-27 23:15:00,
2013-04-27 19:20:00,58.2,51.7,28.54,ESE,102,7.0,13.0,79,0.00,,---,0.00,VWS V14.00,2013-04-27 23:20:00,
2013-04-27 19:25:00,58.2,51.7,28.54,East,90,5.0,13.0,79,0.00,,---,0.00,VWS V14.00,2013-04-27 23:25:00,
2013-04-27 19:30:00,58.1,51.6,28.54,ESE,105,5.0,13.0,79,0.00,,---,0.00,VWS V14.00,2013-04-27 23:30:00,
2013-04-27 19:35:00,58.2,52.1,28.54,East,88,4.0,13.0,80,0.00,,---,0.00,VWS V14.00,2013-04-27 23:35:00,
2013-04-27 19:40:00,58.0,51.9,28.54,ESE,106,9.0,10.0,80,0.00,,---,0.00,VWS V14.00,2013-04-27 23:40:00,
2013-04-27 19:45:00,57.9,51.8,28.54,ESE,110,6.0,10.0,80,0.00,,---,0.00,VWS V14.00,2013-04-27 23:45:00,
2013-04-27 19:50:00,57.9,51.8,28.54,East,90,5.0,11.0,80,0.00,,---,0.00,VWS V14.00,2013-04-27 23:50:00,
2013-04-27 19:55:00,58.0,51.9,28.54,East,98,4.0,11.0,80,0.00,,---,0.00,VWS V14.00,2013-04-27 23:55:00,
2013-04-27 20:00:00,57.9,51.8,28.54,ESE,103,7.0,11.0,80,0.00,,---,0.00,VWS V14.00,2013-04-28 00:00:00,
2013-04-27 20:05:00,57.9,51.8,28.54,ESE,102,7.0,11.0,80,0.00,,---,0.00,VWS V14.00,2013-04-28 00:05:00,
2013-04-27 20:10:00,57.9,51.8,28.54,ESE,112,5.0,6.0,80,0.00,,---,0.00,VWS V14.00,2013-04-28 00:10:00,
2013-04-27 20:15:00,57.9,51.8,29.08,ESE,111,5.0,7.0,80,0.00,,---,0.00,VWS V14.00,2013-04-28 00:15:00,
2013-04-27 20:21:00,57.9,51.8,29.08,East,97,8.0,10.0,80,0.00,,---,0.00,VWS V14.00,2013-04-28 00:21:00,
2013-04-27 20:26:00,57.9,51.8,29.08,East,88,6.0,11.0,80,0.00,,---,0.00,VWS V14.00,2013-04-28 00:26:00,
2013-04-27 20:30:00,57.8,51.7,29.08,ESE,111,9.0,11.0,80,0.00,,---,0.00,VWS V14.00,2013-04-28 00:30:00,
2013-04-27 20:31:00,57.8,51.7,29.08,ESE,107,6.0,11.0,80,0.00,,---,0.00,VWS V14.00,2013-04-28 00:31:00,
2013-04-27 20:36:00,57.8,51.7,29.08,ESE,111,7.0,11.0,80,0.00,,---,0.00,VWS V14.00,2013-04-28 00:36:00,
2013-04-27 20:41:00,57.7,51.9,29.08,ESE,119,7.0,12.0,81,0.00,,---,0.00,VWS V14.00,2013-04-28 00:41:00,
2013-04-27 20:46:00,57.7,51.9,29.08,ESE,109,4.0,12.0,81,0.00,,---,0.00,VWS V14.00,2013-04-28 00:46:00,
2013-04-27 20:51:00,57.6,51.8,29.08,East,97,7.0,12.0,81,0.00,,---,0.00,VWS V14.00,2013-04-28 00:51:00,
2013-04-27 20:56:00,57.5,51.7,29.08,ESE,102,6.0,12.0,81,0.00,,---,0.00,VWS V14.00,2013-04-28 00:56:00,
2013-04-27 21:00:00,57.3,51.9,28.99,East,96,7.0,12.0,82,0.00,,---,0.00,VWS V14.00,2013-04-28 01:00:00,
2013-04-27 21:01:00,57.5,52.1,28.99,East,96,3.0,12.0,82,0.00,,---,0.00,VWS V14.00,2013-04-28 01:01:00,
2013-04-27 21:06:00,57.3,51.9,28.96,East,91,7.0,7.0,82,0.00,,---,0.00,VWS V14.00,2013-04-28 01:06:00,
2013-04-27 21:11:00,57.0,51.9,28.96,East,90,9.0,12.0,83,0.00,,---,0.01,VWS V14.00,2013-04-28 01:11:00,
2013-04-27 21:16:00,56.9,52.1,28.94,East,84,7.0,12.0,84,0.13,,---,0.02,VWS V14.00,2013-04-28 01:16:00,
2013-04-27 21:21:00,56.8,52.0,28.94,East,91,9.0,13.0,84,0.07,,---,0.02,VWS V14.00,2013-04-28 01:21:00,
2013-04-27 21:26:00,56.8,52.0,28.94,East,82,7.0,13.0,84,0.04,,---,0.02,VWS V14.00,2013-04-28 01:26:00,
2013-04-27 21:30:00,56.8,52.0,29.67,East,99,9.0,13.0,84,0.00,,---,0.02,VWS V14.00,2013-04-28 01:30:00,
2013-04-27 21:31:00,56.9,52.1,28.94,ENE,76,6.0,13.0,84,0.00,,---,0.02,VWS V14.00,2013-04-28 01:31:00,
2013-04-27 21:37:00,56.8,52.0,29.67,East,90,5.0,9.0,84,0.00,,---,0.02,VWS V14.00,2013-04-28 01:37:00,
2013-04-27 21:42:00,56.9,52.1,29.67,East,86,6.0,10.0,84,0.00,,---,0.02,VWS V14.00,2013-04-28 01:42:00,
2013-04-27 21:47:00,56.9,52.1,29.67,ESE,106,7.0,10.0,84,0.00,,---,0.02,VWS V14.00,2013-04-28 01:47:00,
2013-04-27 21:52:00,56.9,52.1,29.67,East,101,6.0,12.0,84,0.00,,---,0.02,VWS V14.00,2013-04-28 01:52:00,
2013-04-27 21:57:00,56.9,52.1,29.82,East,98,8.0,12.0,84,0.00,,---,0.02,VWS V14.00,2013-04-28 01:57:00,
2013-04-27 22:00:00,56.9,52.1,29.82,East,86,4.0,12.0,84,0.00,,---,0.02,VWS V14.00,2013-04-28 02:00:00,
2013-04-27 22:02:00,56.9,52.1,29.82,East,90,6.0,12.0,84,0.00,,---,0.02,VWS V14.00,2013-04-28 02:02:00,
2013-04-27 22:07:00,56.9,52.1,29.82,East,86,7.0,8.0,84,0.00,,---,0.02,VWS V14.00,2013-04-28 02:07:00,
2013-04-27 22:12:00,56.8,52.0,29.82,East,88,9.0,12.0,84,0.00,,---,0.02,VWS V14.00,2013-04-28 02:12:00,
2013-04-27 22:17:00,56.8,52.0,29.82,ENE,73,7.0,12.0,84,0.00,,---,0.02,VWS V14.00,2013-04-28 02:17:00,
2013-04-27 22:22:00,56.8,52.0,29.82,East,88,7.0,12.0,84,0.00,,---,0.02,VWS V14.00,2013-04-28 02:22:00,
2013-04-27 22:27:00,56.8,52.3,29.82,East,79,5.0,12.0,85,0.00,,---,0.02,VWS V14.00,2013-04-28 02:27:00,
2013-04-27 22:30:00,56.7,52.2,29.15,ENE,72,6.0,12.0,85,0.00,,---,0.02,VWS V14.00,2013-04-28 02:30:00,
2013-04-27 22:32:00,56.8,52.3,29.82,East,94,8.0,12.0,85,0.00,,---,0.02,VWS V14.00,2013-04-28 02:32:00,
2013-04-27 22:37:00,56.7,52.2,29.15,ENE,71,10.0,10.0,85,0.00,,---,0.02,VWS V14.00,2013-04-28 02:37:00,
2013-04-27 22:42:00,56.7,52.2,29.15,East,83,5.0,10.0,85,0.00,,---,0.02,VWS V14.00,2013-04-28 02:42:00,
2013-04-27 22:47:00,56.7,52.2,29.14,East,91,9.0,12.0,85,0.00,,---,0.02,VWS V14.00,2013-04-28 02:47:00,
2013-04-27 22:52:00,56.7,52.2,29.24,East,96,10.0,14.0,85,0.00,,---,0.02,VWS V14.00,2013-04-28 02:52:00,
2013-04-27 22:57:00,56.7,52.2,29.02,East,92,10.0,14.0,85,0.00,,---,0.02,VWS V14.00,2013-04-28 02:57:00,
2013-04-27 23:00:00,56.7,52.2,29.20,East,88,6.0,14.0,85,0.00,,---,0.02,VWS V14.00,2013-04-28 03:00:00,
2013-04-27 23:03:00,56.7,52.2,29.20,East,98,7.0,14.0,85,0.00,,---,0.02,VWS V14.00,2013-04-28 03:03:00,
2013-04-27 23:08:00,56.7,52.2,29.20,East,96,6.0,9.0,85,0.00,,---,0.02,VWS V14.00,2013-04-28 03:08:00,
2013-04-27 23:13:00,56.7,52.2,29.20,East,88,7.0,10.0,85,0.00,,---,0.02,VWS V14.00,2013-04-28 03:13:00,
2013-04-27 23:18:00,56.7,52.2,29.20,East,82,6.0,10.0,85,0.00,,---,0.02,VWS V14.00,2013-04-28 03:18:00,
2013-04-27 23:23:00,56.8,52.3,29.20,East,89,5.0,10.0,85,0.00,,---,0.02,VWS V14.00,2013-04-28 03:23:00,
2013-04-27 23:28:00,56.8,52.3,29.20,East,86,4.0,10.0,85,0.00,,---,0.02,VWS V14.00,2013-04-28 03:28:00,
2013-04-27 23:30:00,56.8,52.3,29.20,East,84,5.0,10.0,85,0.00,,---,0.02,VWS V14.00,2013-04-28 03:30:00,
2013-04-27 23:33:00,56.8,52.3,29.20,ENE,76,3.0,10.0,85,0.00,,---,0.02,VWS V14.00,2013-04-28 03:33:00,
2013-04-27 23:38:00,56.8,52.3,29.20,ENE,63,5.0,6.0,85,0.00,,---,0.02,VWS V14.00,2013-04-28 03:38:00,
2013-04-27 23:43:00,56.8,52.3,29.20,East,92,4.0,9.0,85,0.00,,---,0.02,VWS V14.00,2013-04-28 03:43:00,
2013-04-27 23:48:00,56.8,52.3,29.20,East,97,5.0,10.0,85,0.00,,---,0.02,VWS V14.00,2013-04-28 03:48:00,
2013-04-27 23:53:00,56.7,52.2,29.38,ESE,102,5.0,10.0,85,0.00,,---,0.02,VWS V14.00,2013-04-28 03:53:00,
2013-04-27 23:58:00,56.7,52.2,29.20,East,92,4.0,10.0,85,0.00,,---,0.02,VWS V14.00,2013-04-28 03:58:00,